Back to catalog

DELTA 1 R/B

AlivePO
NORAD 3670·ROCKET BODY·🇺🇸 United States

Launched Jan 30, 1969 from Vandenberg Space Force Base

Loading…

Next Passes (next 24 hours)

TLE

FreshSource: Space-Track

Epoch: Sep 14, 2026, 07:17 UTC

1 03670U 69009B   26257.30349367  .00000330  00000-0  20726-3 0  9993
2 03670  88.4084  95.0861 1630748 100.6606 278.1557 11.46806733389416

Track DELTA 1 R/B in real time with AllMySat

Download on the App Store